This is the latest recevied weather packets stored in our database for station/object WX4FUN-13. If no packets are shown the sender has not sent any weather packets the latest 10 day(s).
| Time | Temp. | Humidity | Pressure | Rain* | Wind** | Luminosity | Snow |
|---|---|---|---|---|---|---|---|
| 1778041463 | 17.22° C | 68% | 1010.1 hPa | 0 mm | - | 0 W/m² | - |
| 1778040863 | 17.78° C | 67% | 1010.1 hPa | 0 mm | - | 0 W/m² | - |
| 1778040263 | 17.78° C | 67% | 1010.1 hPa | 0 mm | - | 0 W/m² | - |
| 1778039663 | 17.78° C | 67% | 1010.3 hPa | 0 mm | - | 0 W/m² | - |
| 1778039064 | 17.78° C | 66% | 1010.3 hPa | 0 mm | - | 0 W/m² | - |
| 1778038464 | 17.78° C | 67% | 1010.4 hPa | 0 mm | - | 0 W/m² | - |
| 1778037863 | 17.22° C | 67% | 1010.4 hPa | 0 mm | - | 0 W/m² | - |
| 1778037262 | 17.78° C | 67% | 1010.5 hPa | 0 mm | - | 0 W/m² | - |
| 1778036663 | 17.78° C | 66% | 1010.5 hPa | 0 mm | - | 0 W/m² | - |
| 1778036063 | 17.78° C | 66% | 1010.5 hPa | 0 mm | - | 0 W/m² | - |
| 1778035463 | 17.78° C | 66% | 1010.4 hPa | 0 mm | - | 0 W/m² | - |
| 1778034864 | 17.78° C | 65% | 1010.3 hPa | 0 mm | - | 0 W/m² | - |
| 1778034263 | 17.78° C | 65% | 1010.3 hPa | 0 mm | - | 0 W/m² | - |
| 1778033664 | 17.78° C | 64% | 1010.2 hPa | 0 mm | - | 0 W/m² | - |
| 1778033060 | 17.78° C | 64% | 1010.1 hPa | 0 mm | - | 0 W/m² | - |
| 1778032461 | 18.33° C | 63% | 1010.2 hPa | 0 mm | - | 0 W/m² | - |
| 1778031862 | 18.33° C | 63% | 1010.1 hPa | 0 mm | - | 0 W/m² | - |
| 1778031260 | 18.33° C | 62% | 1010 hPa | 0 mm | - | 0 W/m² | - |
| 1778030661 | 18.89° C | 62% | 1009.9 hPa | 0 mm | - | 0 W/m² | - |
| 1778030059 | 18.89° C | 61% | 1009.7 hPa | 0 mm | - | 0 W/m² | - |
| 1778029459 | 19.44° C | 60% | 1009.6 hPa | 0 mm | - | 0 W/m² | - |
| 1778028860 | 19.44° C | 60% | 1009.6 hPa | 0 mm | - | 0 W/m² | - |
| 1778028255 | 20° C | 59% | 1009.5 hPa | 0 mm | - | 0 W/m² | - |
| 1778027656 | 20° C | 58% | 1009.3 hPa | 0 mm | - | 0 W/m² | - |
| 1778027053 | 20.56° C | 58% | 1009.3 hPa | 0 mm | - | 0 W/m² | - |
* Rain latest hour (hover to see other rain measurements)
** Current wind speed in m/s (hover to see current wind gust speed)